Williamtown, Australia

10:16 AM AEST on September 22, 2017 (GMT +1000)
Williamtown Military

Weather History for YWLM - December, 2012

Change the Weather History Date:

Thursday, December 13, 2012

  Actual Average Record
Temperature  
Mean Temperature 66 °F -  
Max Temperature 78 °F - - ()
Min Temperature 54 °F - - ()
Cooling Degree Days 1    
Growing Degree Days 16 (Base 50)    
Moisture  
Dew Point 57 °F    
Average Humidity 68    
Maximum Humidity 100    
Minimum Humidity 36    
Precipitation  
Precipitation 0.00 in - - ()
Sea Level Pressure  
Sea Level Pressure 30.14 in    
Wind  
Wind Speed 6 mph ()    
Max Wind Speed 20 mph    
Max Gust Speed -    
Visibility 7.2 miles    
Events Fog    
T = Trace of Precipitation, MM = Missing Value Source: Averaged Metar Reports

Daily Weather History Graph

Daily Weather History Graph

Search for Another Location

Airport or City:

Trip Planner

Search our weather history database for the weather conditions in past years. The results will help you decide how hot, cold, wet, or windy it might be!

Date:

Astronomy

Dec. 13, 2012 Rise Set
Actual Time 5:38 AM AEDT 7:55 PM AEDT
Civil Twilight 5:09 AM AEDT 8:24 PM AEDT
Nautical Twilight 4:34 AM AEDT 8:59 PM AEDT
Astronomical Twilight 3:56 AM AEDT 9:37 PM AEDT
Moon 5:14 AM AEDT (12/13) 7:43 PM AEDT (12/13)
Length of Visible Light 15h 14m
Length of Day
14h 17m
Waning Crescent, 0% of the Moon is Illuminated
Dec 13
Waning Crescent
Dec 13
New
Dec 20
First Quarter
Dec 28
Full
Jan 5
Last Quarter

Hourly Weather History & Observations

Time (AEDT) Temp. Dew Point Humidity Pressure Visibility Wind Dir Wind Speed Gust Speed Precip Events Conditions
12:00 AM 59 °F 57 °F 91% 30.25 in - Calm Calm - -  
12:00 AM 59.0 °F 57.2 °F 94% 30.24 in 6.2 mi Calm Calm - N/A   Unknown
12:30 AM 59.0 °F 57.2 °F 94% 30.21 in 6.2 mi Calm Calm - N/A   Unknown
1:00 AM 57.2 °F 55.4 °F 94% 30.21 in 6.2 mi Calm Calm - N/A   Unknown
1:30 AM 57.2 °F 55.4 °F 94% 30.21 in 6.2 mi Calm Calm - N/A   Unknown
2:00 AM 56 °F 55 °F 95% 30.21 in - Calm Calm - -  
2:00 AM 57.2 °F 55.4 °F 94% 30.18 in 6.2 mi Calm Calm - N/A   Unknown
2:30 AM 55.4 °F 53.6 °F 94% 30.18 in 6.2 mi West 1.2 mph - N/A   Unknown
3:00 AM 56 °F 54 °F 89% 30.19 in - NNW 3.5 mph - -  
3:00 AM 55.4 °F 53.6 °F 94% 30.18 in 6.2 mi NNW 3.5 mph - N/A   Unknown
3:30 AM 55.4 °F 55.4 °F 100% 30.18 in 6.2 mi Calm Calm - N/A   Unknown
4:00 AM 57.2 °F 55.4 °F 94% 30.18 in 6.2 mi NW 4.6 mph - N/A   Unknown
4:30 AM 55.4 °F 53.6 °F 94% 30.18 in 6.2 mi WNW 1.2 mph - N/A   Unknown
5:00 AM 56 °F 54 °F 92% 30.19 in - Calm Calm - -  
5:00 AM 55.4 °F 53.6 °F 94% 30.18 in 6.2 mi Calm Calm - N/A   Scattered Clouds
5:30 AM 55.4 °F 53.6 °F 94% 30.18 in 6.2 mi WNW 3.5 mph - N/A   Mostly Cloudy
6:00 AM 57 °F 56 °F 95% 30.19 in 19 mi Calm Calm - - Fog Patches of Fog
6:00 AM 57.2 °F 55.4 °F 94% 30.18 in 6.2 mi Calm Calm - N/A Fog Partly Cloudy
6:30 AM 60.8 °F 59.0 °F 94% 30.18 in 6.2 mi Calm Calm - N/A   Partly Cloudy
7:00 AM 62.6 °F 60.8 °F 94% 30.18 in 6.2 mi Calm Calm - N/A   Partly Cloudy
7:30 AM 64.4 °F 62.6 °F 94% 30.18 in 6.2 mi West 4.6 mph - N/A   Partly Cloudy
8:00 AM 68.0 °F 62.6 °F 83% 30.21 in 6.2 mi Calm Calm - N/A   Partly Cloudy
9:00 AM 73 °F 58 °F 51% 30.22 in 19 mi SE 8.1 mph - -   Haze
9:00 AM 73.4 °F 59.0 °F 61% 30.21 in 6.2 mi SE 8.1 mph - N/A   Partly Cloudy
9:30 AM - - N/A% 0.00 in - East 6.9 mph - N/A   Unknown
10:00 AM 75.2 °F 57.2 °F 53% 30.21 in 6.2 mi SE 11.5 mph - N/A   Partly Cloudy
10:30 AM 75.2 °F 57.2 °F 53% 30.21 in 6.2 mi SE 11.5 mph - N/A   Scattered Clouds
11:00 AM 75 °F 56 °F 41% 30.21 in - ESE 10.4 mph - -  
11:00 AM 75.2 °F 55.4 °F 50% 30.18 in 6.2 mi ESE 10.4 mph - N/A   Scattered Clouds
11:30 AM 75.2 °F 57.2 °F 53% 30.18 in 6.2 mi SSE 11.5 mph - N/A   Partly Cloudy
12:00 PM 77 °F 57 °F 40% 30.18 in 16 mi SSE 15.0 mph - -   Haze
12:00 PM 77.0 °F 57.2 °F 50% 30.18 in 6.2 mi SSE 15.0 mph - N/A   Partly Cloudy
12:30 PM 77.0 °F 59.0 °F 54% 30.15 in 6.2 mi SE 17.3 mph - N/A   Scattered Clouds
1:00 PM 77.0 °F 57.2 °F 50% 30.15 in 6.2 mi SE 16.1 mph - N/A   Partly Cloudy
1:30 PM 78.8 °F 57.2 °F 47% 30.12 in 6.2 mi SE 19.6 mph - N/A   Partly Cloudy
2:00 PM 78 °F 56 °F 36% 30.13 in - ESE 18.4 mph - -  
2:00 PM 77.0 °F 55.4 °F 47% 30.12 in 6.2 mi ESE 18.4 mph - N/A   Partly Cloudy
2:30 PM 78.8 °F 57.2 °F 47% 30.09 in 6.2 mi ESE 17.3 mph - N/A   Partly Cloudy
3:00 PM 78 °F 56 °F 36% 30.12 in 16 mi ESE 17.3 mph - -   Haze
3:00 PM 78.8 °F 55.4 °F 44% 30.09 in 6.2 mi ESE 17.3 mph - N/A   Partly Cloudy
3:30 PM 77.0 °F 53.6 °F 44% 30.09 in 6.2 mi ESE 17.3 mph - N/A   Partly Cloudy
4:00 PM 77.0 °F 53.6 °F 44% 30.09 in 6.2 mi ESE 18.4 mph - N/A   Partly Cloudy
4:30 PM 77.0 °F 55.4 °F 47% 30.06 in 6.2 mi East 18.4 mph - N/A   Partly Cloudy
5:00 PM 78 °F 56 °F 36% 30.07 in - East 17.3 mph - -  
5:00 PM 78.8 °F 55.4 °F 44% 30.06 in 6.2 mi East 17.3 mph - N/A   Unknown
5:30 PM 77.0 °F 55.4 °F 47% 30.06 in - NE 15.0 mph - N/A   Clear
6:00 PM 76 °F 57 °F 41% 30.07 in - East 16.1 mph - -  
6:00 PM 75.2 °F 57.2 °F 53% 30.06 in - East 16.1 mph - N/A   Clear
6:30 PM 75.2 °F 59.0 °F 57% 30.06 in - ENE 13.8 mph - N/A   Clear
7:00 PM 73.4 °F 59.0 °F 61% 30.04 in - ENE 16.1 mph - N/A   Clear
7:30 PM 71.6 °F 60.8 °F 69% 30.04 in - ENE 15.0 mph - N/A   Clear
8:00 PM 71 °F 61 °F 62% 30.06 in - ENE 12.7 mph - -  
8:00 PM 71.6 °F 60.8 °F 69% 30.04 in - ENE 12.7 mph - N/A   Clear
8:30 PM 69.8 °F 60.8 °F 73% 30.04 in 6.2 mi ENE 10.4 mph - N/A   Unknown
9:00 PM 71 °F 60 °F 59% 30.06 in - NE 12.7 mph - -  
9:00 PM 71.6 °F 59.0 °F 64% 30.04 in 6.2 mi NE 12.7 mph - N/A   Unknown
9:30 PM 69.8 °F 59.0 °F 68% 30.06 in 6.2 mi NE 10.4 mph - N/A   Unknown
10:00 PM 69.8 °F 59.0 °F 68% 30.06 in 6.2 mi NE 10.4 mph - N/A   Unknown
10:30 PM 68.0 °F 59.0 °F 73% 30.06 in 6.2 mi NE 10.4 mph - N/A   Unknown
11:00 PM 68 °F 59 °F 65% 30.07 in - NE 10.4 mph - -  
11:00 PM 68.0 °F 59.0 °F 73% 30.06 in 6.2 mi NE 10.4 mph - N/A   Unknown
11:30 PM 68.0 °F 59.0 °F 73% 30.06 in 6.2 mi NE 10.4 mph - N/A   Unknown